,,,PA_Meas_PMT16A,,PR_Meas_QMR101_102,,RH_Meas_QMH101,,SR_Meas_QMS101,,TA_Meas_QMH101,,GenWind,,GenWind,
date,time,status,PA,status,PR,status,RH,status,SR,status,TA,status,DirAvg,status,SpdAvg,
2014-10-23, 00:00:04,VALID,1011.74,VALID,0,INVALID,115.439,VALID,0,VALID,22.5835,VALID,35,VALID,0,
2014-10-23, 00:01:04,VALID,1011.72,VALID,0,INVALID,115.462,VALID,0.112112,VALID,22.603,VALID,35,VALID,0,
2014-10-23, 00:02:04,VALID,1011.71,VALID,0,INVALID,115.469,VALID,0.112112,VALID,22.5835,VALID,35,VALID,0,
2014-10-23, 00:03:04,VALID,1011.69,VALID,0,INVALID,115.492,VALID,0.112112,VALID,22.5835,VALID,35,VALID,0,
2014-10-23, 00:04:04,VALID,1011.71,VALID,0,INVALID,115.462,VALID,0.112112,VALID,22.5818,VALID,35,VALID,0,
2014-10-23, 00:05:04,VALID,1011.71,VALID,0,INVALID,115.416,VALID,0.112112,VALID,22.5818,VALID,35,VALID,0,
2014-10-23, 00:06:04,VALID,1011.71,VALID,0,INVALID,115.408,VALID,0,VALID,22.5818,VALID,35,VALID,0,
2014-10-23, 00:07:04,VALID,1011.74,VALID,0,INVALID,115.378,VALID,0.112112,VALID,22.6225,VALID,35,VALID,0,
2014-10-23, 00:08:04,VALID,1011.75,VALID,0,INVALID,115.385,VALID,0,VALID,22.603,VALID,35,VALID,0,
2014-10-23, 00:09:04,VALID,1011.74,VALID,0,INVALID,115.423,VALID,0,VALID,22.6225,VALID,35,VALID,0,
2014-10-23, 00:10:04,VALID,1011.76,VALID,0,INVALID,115.385,VALID,0,VALID,22.6225,VALID,35,VALID,0,
2014-10-23, 00:11:04,VALID,1011.75,VALID,0,INVALID,115.439,VALID,0,VALID,22.6013,VALID,35,VALID,0,
2014-10-23, 00:12:04,VALID,1011.72,VALID,0,INVALID,115.393,VALID,0.112112,VALID,22.6013,VALID,35,VALID,0,
2014-10-23, 00:13:04,VALID,1011.73,VALID,0,INVALID,115.454,VALID,0,VALID,22.603,VALID,35,VALID,0,
2014-10-23, 00:14:04,VALID,1011.72,VALID,0,INVALID,115.423,VALID,0,VALID,22.6013,VALID,35,VALID,0,
2014-10-23, 00:15:04,VALID,1011.69,VALID,0,INVALID,115.454,VALID,0,VALID,22.6225,VALID,35,VALID,0,
2014-10-23, 00:16:04,VALID,1011.68,VALID,0,INVALID,115.484,VALID,0,VALID,22.6225,VALID,35,VALID,0,
2014-10-23, 00:17:04,VALID,1011.64,VALID,0,INVALID,115.431,VALID,0.112112,VALID,22.6013,VALID,35,VALID,0,
2014-10-23, 00:18:04,VALID,1011.65,VALID,0,INVALID,115.401,VALID,0,VALID,22.6225,VALID,35,VALID,0,
2014-10-23, 00:19:04,VALID,1011.65,VALID,0,INVALID,115.385,VALID,0,VALID,22.642,VALID,35,VALID,0,
2014-10-23, 00:20:04,VALID,1011.66,VALID,0,INVALID,115.34,VALID,0,VALID,22.6208,VALID,35,VALID,0,
2014-10-23, 00:21:04,VALID,1011.65,VALID,0,INVALID,115.347,VALID,0.112112,VALID,22.642,VALID,35,VALID,0,
2014-10-23, 00:22:04,VALID,1011.64,VALID,0,INVALID,115.317,VALID,0.112112,VALID,22.6597,VALID,35,VALID,0,
2014-10-23, 00:23:04,VALID,1011.59,VALID,0,INVALID,115.34,VALID,0.112112,VALID,22.6402,VALID,35,VALID,0,
2014-10-23, 00:24:04,VALID,1011.58,VALID,0,INVALID,115.355,VALID,0.112112,VALID,22.6402,VALID,35,VALID,0,
2014-10-23, 00:25:04,VALID,1011.57,VALID,0,INVALID,115.347,VALID,0.112112,VALID,22.6402,VALID,35,VALID,0,
2014-10-23, 00:26:04,VALID,1011.53,VALID,0,INVALID,115.309,VALID,0,VALID,22.6597,VALID,35,VALID,0,
2014-10-23, 00:27:04,VALID,1011.53,VALID,0,INVALID,115.324,VALID,0.112112,VALID,22.6597,VALID,35,VALID,0,
2014-10-23, 00:28:04,VALID,1011.51,VALID,0,INVALID,115.362,VALID,0.112112,VALID,22.6809,VALID,35,VALID,0,
2014-10-23, 00:29:04,VALID,1011.51,VALID,0,INVALID,115.362,VALID,0.112112,VALID,22.6597,VALID,35,VALID,0,
2014-10-23, 00:30:04,VALID,1011.51,VALID,0,INVALID,115.301,VALID,0,VALID,22.6597,VALID,35,VALID,0,
2014-10-23, 00:31:04,VALID,1011.5,VALID,0,INVALID,115.324,VALID,0.112112,VALID,22.6809,VALID,35,VALID,0,
2014-10-23, 00:32:04,VALID,1011.48,VALID,0,INVALID,115.301,VALID,0,VALID,22.6597,VALID,35,VALID,0,
2014-10-23, 00:33:04,VALID,1011.47,VALID,0,INVALID,115.263,VALID,0,VALID,22.7004,VALID,35,VALID,0,
2014-10-23, 00:34:04,VALID,1011.43,VALID,0,INVALID,115.294,VALID,0,VALID,22.7004,VALID,35,VALID,0,
2014-10-23, 00:35:04,VALID,1011.44,VALID,0,INVALID,115.256,VALID,0.112112,VALID,22.6792,VALID,35,VALID,0,
2014-10-23, 00:36:04,VALID,1011.4,VALID,0,INVALID,115.294,VALID,0,VALID,22.6792,VALID,35,VALID,0,
2014-10-23, 00:37:04,VALID,1011.37,VALID,0,INVALID,115.271,VALID,0.112112,VALID,22.7004,VALID,35,VALID,0,
2014-10-23, 00:38:04,VALID,1011.34,VALID,0,INVALID,115.279,VALID,0.112112,VALID,22.7199,VALID,35,VALID,0,
2014-10-23, 00:39:04,VALID,1011.33,VALID,0,INVALID,115.202,VALID,0.112112,VALID,22.7182,VALID,35,VALID,0,
2014-10-23, 00:40:04,VALID,1011.31,VALID,0,INVALID,115.248,VALID,0,VALID,22.7199,VALID,35,VALID,0,
2014-10-23, 00:41:04,VALID,1011.31,VALID,0,INVALID,115.248,VALID,0.112112,VALID,22.7394,VALID,35,VALID,0,
2014-10-23, 00:42:04,VALID,1011.32,VALID,0,INVALID,115.263,VALID,0.112112,VALID,22.7394,VALID,35,VALID,0,
2014-10-23, 00:43:04,VALID,1011.29,VALID,0,INVALID,115.256,VALID,0,VALID,22.7199,VALID,35,VALID,0,
2014-10-23, 00:44:04,VALID,1011.3,VALID,0,INVALID,115.248,VALID,0,VALID,22.7182,VALID,35,VALID,0,
2014-10-23, 00:45:04,VALID,1011.29,VALID,0,INVALID,115.21,VALID,0,VALID,22.7376,VALID,35,VALID,0,
2014-10-23, 00:46:04,VALID,1011.24,VALID,0,INVALID,115.256,VALID,0,VALID,22.7588,VALID,35,VALID,0,
2014-10-23, 00:47:04,VALID,1011.26,VALID,0,INVALID,115.233,VALID,0,VALID,22.7588,VALID,35,VALID,0,
2014-10-23, 00:48:04,VALID,1011.27,VALID,0,INVALID,115.248,VALID,0,VALID,22.7588,VALID,35,VALID,0,
2014-10-23, 00:49:04,VALID,1011.24,VALID,0,INVALID,115.225,VALID,0,VALID,22.7783,VALID,35,VALID,0,
2014-10-23, 00:50:04,VALID,1011.22,VALID,0,INVALID,115.24,VALID,0,VALID,22.7588,VALID,35,VALID,0,
2014-10-23, 00:51:04,VALID,1011.27,VALID,0,INVALID,115.24,VALID,0,VALID,22.7571,VALID,35,VALID,0,
2014-10-23, 00:52:04,VALID,1011.28,VALID,0,INVALID,115.248,VALID,0,VALID,22.7571,VALID,35,VALID,0,
2014-10-23, 00:53:04,VALID,1011.26,VALID,0,INVALID,115.233,VALID,0.112112,VALID,22.7783,VALID,35,VALID,0,
2014-10-23, 00:54:04,VALID,1011.3,VALID,0,INVALID,115.248,VALID,0,VALID,22.7588,VALID,35,VALID,0,
2014-10-23, 00:55:04,VALID,1011.29,VALID,0,INVALID,115.248,VALID,0.112112,VALID,22.7783,VALID,35,VALID,0,
2014-10-23, 00:56:04,VALID,1011.27,VALID,0,INVALID,115.202,VALID,0,VALID,22.7783,VALID,35,VALID,0,
2014-10-23, 00:57:04,VALID,1011.25,VALID,0,INVALID,115.195,VALID,0.112112,VALID,22.7783,VALID,35,VALID,0,
2014-10-23, 00:58:04,VALID,1011.27,VALID,0,INVALID,115.187,VALID,0.112112,VALID,22.7783,VALID,35,VALID,0,
2014-10-23, 00:59:04,VALID,1011.23,VALID,0,INVALID,115.172,VALID,0.112112,VALID,22.7961,VALID,35,VALID,0,
2014-10-23, 01:00:04,VALID,1011.24,VALID,0,INVALID,115.134,VALID,0.112112,VALID,22.8155,VALID,35,VALID,0,
2014-10-23, 01:01:04,VALID,1011.2,VALID,0,INVALID,115.195,VALID,0,VALID,22.8173,VALID,35,VALID,0,
2014-10-23, 01:02:04,VALID,1011.19,VALID,0,INVALID,115.179,VALID,0.112112,VALID,22.7961,VALID,35,VALID,0,
2014-10-23, 01:03:04,VALID,1011.14,VALID,0,INVALID,115.187,VALID,0,VALID,22.7978,VALID,35,VALID,0,
2014-10-23, 01:04:05,VALID,1011.11,VALID,0,INVALID,115.172,VALID,0.112112,VALID,22.8173,VALID,35,VALID,0,
2014-10-23, 01:05:05,VALID,1011.08,VALID,0,INVALID,115.172,VALID,0,VALID,22.8173,VALID,35,VALID,0,
2014-10-23, 01:06:04,VALID,1011.07,VALID,0,INVALID,115.172,VALID,0,VALID,22.8173,VALID,35,VALID,0,
2014-10-23, 01:07:05,VALID,1011.04,VALID,0,INVALID,115.134,VALID,0,VALID,22.8173,VALID,35,VALID,0,
2014-10-23, 01:08:05,VALID,1011,VALID,0,INVALID,115.187,VALID,0.112112,VALID,22.8173,VALID,35,VALID,0,
2014-10-23, 01:09:05,VALID,1010.97,VALID,0,INVALID,115.149,VALID,0,VALID,22.8173,VALID,35,VALID,0,
2014-10-23, 01:10:05,VALID,1010.92,VALID,0,INVALID,115.141,VALID,0.112112,VALID,22.8155,VALID,35,VALID,0,
2014-10-23, 01:11:05,VALID,1010.92,VALID,0,INVALID,115.195,VALID,0.112112,VALID,22.7766,VALID,35,VALID,0,
2014-10-23, 01:12:05,VALID,1010.89,VALID,0,INVALID,115.225,VALID,0.112112,VALID,22.7978,VALID,35,VALID,0,
2014-10-23, 01:13:05,VALID,1010.86,VALID,0,INVALID,115.202,VALID,0.112112,VALID,22.7766,VALID,35,VALID,0,
2014-10-23, 01:14:05,VALID,1010.85,VALID,0,INVALID,115.172,VALID,0.112112,VALID,22.8173,VALID,35,VALID,0,
2014-10-23, 01:15:05,VALID,1010.84,VALID,0,INVALID,115.065,VALID,0.112112,VALID,22.835,VALID,35,VALID,0,
2014-10-23, 01:16:05,VALID,1010.82,VALID,0,INVALID,115.118,VALID,0,VALID,22.835,VALID,35,VALID,0,
2014-10-23, 01:17:05,VALID,1010.81,VALID,0,INVALID,115.179,VALID,0.112112,VALID,22.8173,VALID,35,VALID,0,
2014-10-23, 01:18:05,VALID,1010.77,VALID,0,INVALID,115.164,VALID,0.112112,VALID,22.8173,VALID,35,VALID,0,
2014-10-23, 01:19:05,VALID,1010.74,VALID,0,INVALID,115.225,VALID,0,VALID,22.7978,VALID,35,VALID,0,
2014-10-23, 01:20:05,VALID,1010.74,VALID,0,INVALID,115.187,VALID,0.112112,VALID,22.8173,VALID,35,VALID,0,
2014-10-23, 01:21:05,VALID,1010.71,VALID,0,INVALID,115.126,VALID,0.112112,VALID,22.7961,VALID,35,VALID,0,
2014-10-23, 01:22:05,VALID,1010.69,VALID,0,INVALID,115.157,VALID,0,VALID,22.8173,VALID,35,VALID,0,
2014-10-23, 01:23:05,VALID,1010.67,VALID,0,INVALID,115.134,VALID,0,VALID,22.8173,VALID,35,VALID,0,
2014-10-23, 01:24:05,VALID,1010.69,VALID,0,INVALID,115.05,VALID,0,VALID,22.835,VALID,35,VALID,0,
2014-10-23, 01:25:05,VALID,1010.66,VALID,0,INVALID,115.118,VALID,0.112112,VALID,22.835,VALID,35,VALID,0,
2014-10-23, 01:26:05,VALID,1010.67,VALID,0,INVALID,115.126,VALID,0.112112,VALID,22.835,VALID,35,VALID,0,
2014-10-23, 01:27:05,VALID,1010.66,VALID,0,INVALID,115.057,VALID,0.112112,VALID,22.8545,VALID,35,VALID,0,
2014-10-23, 01:28:05,VALID,1010.66,VALID,0,INVALID,115.195,VALID,0,VALID,22.8368,VALID,35,VALID,0,
2014-10-23, 01:29:05,VALID,1010.62,VALID,0,INVALID,115.225,VALID,0,VALID,22.8173,VALID,35,VALID,0,
2014-10-23, 01:30:05,VALID,1010.63,VALID,0,INVALID,115.21,VALID,0.112112,VALID,22.8173,VALID,35,VALID,0,
2014-10-23, 01:31:05,VALID,1010.63,VALID,0,INVALID,115.21,VALID,0.112112,VALID,22.8368,VALID,35,VALID,0,
2014-10-23, 01:32:05,VALID,1010.65,VALID,0,INVALID,115.187,VALID,0,VALID,22.8173,VALID,35,VALID,0,
2014-10-23, 01:33:05,VALID,1010.66,VALID,0,INVALID,115.179,VALID,0.112112,VALID,22.8173,VALID,35,VALID,0,
2014-10-23, 01:34:05,VALID,1010.66,VALID,0,INVALID,115.248,VALID,0,VALID,22.7961,VALID,35,VALID,0,
2014-10-23, 01:35:05,VALID,1010.65,VALID,0,INVALID,115.248,VALID,0,VALID,22.7766,VALID,35,VALID,0,
2014-10-23, 01:36:05,VALID,1010.67,VALID,0,INVALID,115.157,VALID,0.112112,VALID,22.7961,VALID,35,VALID,0,
2014-10-23, 01:37:05,VALID,1010.63,VALID,0,INVALID,115.202,VALID,0,VALID,22.7961,VALID,35,VALID,0,
2014-10-23, 01:38:05,VALID,1010.61,VALID,0,INVALID,115.218,VALID,0,VALID,22.8173,VALID,35,VALID,0,
2014-10-23, 01:39:05,VALID,1010.59,VALID,0,INVALID,115.21,VALID,0,VALID,22.7978,VALID,35,VALID,0,
2014-10-23, 01:40:05,VALID,1010.57,VALID,0,INVALID,115.187,VALID,0,VALID,22.8173,VALID,35,VALID,0,
2014-10-23, 01:41:05,VALID,1010.55,VALID,0,INVALID,115.164,VALID,0,VALID,22.8173,VALID,35,VALID,0,
2014-10-23, 01:42:05,VALID,1010.54,VALID,0,INVALID,115.118,VALID,0,VALID,22.8368,VALID,35,VALID,0,
2014-10-23, 01:43:05,VALID,1010.51,VALID,0,INVALID,115.172,VALID,0,VALID,22.7766,VALID,35,VALID,0,
2014-10-23, 01:44:05,VALID,1010.52,VALID,0,INVALID,115.126,VALID,0,VALID,22.8368,VALID,35,VALID,0,
2014-10-23, 01:45:05,VALID,1010.5,VALID,0,INVALID,115.164,VALID,0,VALID,22.7961,VALID,35,VALID,0,
2014-10-23, 01:46:05,VALID,1010.49,VALID,0,INVALID,115.126,VALID,0,VALID,22.8173,VALID,35,VALID,0,
2014-10-23, 01:47:05,VALID,1010.46,VALID,0,INVALID,115.088,VALID,0,VALID,22.8562,VALID,35,VALID,0,
2014-10-23, 01:48:05,VALID,1010.46,VALID,0,INVALID,115.134,VALID,0,VALID,22.8562,VALID,35,VALID,0,
2014-10-23, 01:49:05,VALID,1010.43,VALID,0,INVALID,115.134,VALID,0,VALID,22.8562,VALID,35,VALID,0,
2014-10-23, 01:50:05,VALID,1010.41,VALID,0,INVALID,115.195,VALID,0,VALID,22.8368,VALID,35,VALID,0,
2014-10-23, 01:51:05,VALID,1010.39,VALID,0,INVALID,115.187,VALID,0,VALID,22.8173,VALID,35,VALID,0,
2014-10-23, 01:52:05,VALID,1010.4,VALID,0,INVALID,115.179,VALID,0,VALID,22.8173,VALID,35,VALID,0,
2014-10-23, 01:53:05,VALID,1010.36,VALID,0,INVALID,115.248,VALID,0,VALID,22.7978,VALID,35,VALID,0,
2014-10-23, 01:54:05,VALID,1010.38,VALID,0,INVALID,115.21,VALID,0.112112,VALID,22.7766,VALID,35,VALID,0,
2014-10-23, 01:55:05,VALID,1010.36,VALID,0,INVALID,115.202,VALID,0,VALID,22.7978,VALID,35,VALID,0,
2014-10-23, 01:56:05,VALID,1010.39,VALID,0,INVALID,115.141,VALID,0,VALID,22.8368,VALID,35,VALID,0,
2014-10-23, 01:57:05,VALID,1010.35,VALID,0,INVALID,115.126,VALID,0,VALID,22.8757,VALID,35,VALID,0,
2014-10-23, 01:58:05,VALID,1010.38,VALID,0,INVALID,115.118,VALID,0,VALID,22.8775,VALID,35,VALID,0,
2014-10-23, 01:59:05,VALID,1010.33,VALID,0,INVALID,115.141,VALID,0,VALID,22.8952,VALID,35,VALID,0,
2014-10-23, 02:00:05,VALID,1010.35,VALID,0,INVALID,115.141,VALID,0,VALID,22.8757,VALID,35,VALID,0,
2014-10-23, 02:01:05,VALID,1010.33,VALID,0,INVALID,115.134,VALID,0,VALID,22.835,VALID,35,VALID,0,
2014-10-23, 02:02:05,VALID,1010.31,VALID,0,INVALID,115.149,VALID,0,VALID,22.8757,VALID,35,VALID,0,
2014-10-23, 02:03:05,VALID,1010.34,VALID,0,INVALID,115.179,VALID,0,VALID,22.8562,VALID,35,VALID,0,
2014-10-23, 02:04:05,VALID,1010.31,VALID,0,INVALID,115.141,VALID,0,VALID,22.8562,VALID,35,VALID,0,
2014-10-23, 02:05:05,VALID,1010.29,VALID,0,INVALID,115.187,VALID,0,VALID,22.8368,VALID,35,VALID,0,
2014-10-23, 02:06:05,VALID,1010.25,VALID,0,INVALID,115.141,VALID,0,VALID,22.8562,VALID,35,VALID,0,
2014-10-23, 02:07:05,VALID,1010.24,VALID,0,INVALID,115.172,VALID,0.112112,VALID,22.8368,VALID,35,VALID,0,
2014-10-23, 02:08:05,VALID,1010.22,VALID,0,INVALID,115.164,VALID,0,VALID,22.8368,VALID,35,VALID,0,
2014-10-23, 02:09:05,VALID,1010.19,VALID,0,INVALID,115.179,VALID,0,VALID,22.8562,VALID,35,VALID,0,
2014-10-23, 02:10:05,VALID,1010.2,VALID,0,INVALID,115.141,VALID,0,VALID,22.8562,VALID,35,VALID,0,
2014-10-23, 02:11:05,VALID,1010.17,VALID,0,INVALID,115.157,VALID,0,VALID,22.8562,VALID,35,VALID,0,
2014-10-23, 02:12:05,VALID,1010.16,VALID,0.5,INVALID,115.195,VALID,0,VALID,22.8368,VALID,35,VALID,0,
2014-10-23, 02:13:05,VALID,1010.13,VALID,0,INVALID,115.218,VALID,0.112112,VALID,22.8368,VALID,35,VALID,0,
2014-10-23, 02:14:05,VALID,1010.11,VALID,0,INVALID,115.195,VALID,0.112112,VALID,22.8368,VALID,35,VALID,0,
2014-10-23, 02:15:05,VALID,1010.08,VALID,0,INVALID,115.202,VALID,0,VALID,22.8368,VALID,35,VALID,0,
2014-10-23, 02:16:05,VALID,1010.08,VALID,0,INVALID,115.263,VALID,0,VALID,22.7978,VALID,35,VALID,0,
2014-10-23, 02:17:05,VALID,1010.04,VALID,0,INVALID,115.271,VALID,0,VALID,22.7766,VALID,35,VALID,0,
2014-10-23, 02:18:05,VALID,1010.02,VALID,0,INVALID,115.263,VALID,0,VALID,22.7978,VALID,35,VALID,0,
2014-10-23, 02:19:05,VALID,1010.01,VALID,0,INVALID,115.187,VALID,0,VALID,22.7978,VALID,35,VALID,0,
2014-10-23, 02:20:05,VALID,1010,VALID,0,INVALID,115.187,VALID,0,VALID,22.7978,VALID,35,VALID,0,
2014-10-23, 02:21:05,VALID,1010.01,VALID,0,INVALID,115.157,VALID,0,VALID,22.7978,VALID,35,VALID,0,
2014-10-23, 02:22:05,VALID,1009.96,VALID,0,INVALID,115.149,VALID,0,VALID,22.7978,VALID,35,VALID,0,
2014-10-23, 02:23:05,VALID,1009.94,VALID,0,INVALID,115.218,VALID,0,VALID,22.7978,VALID,35,VALID,0,
2014-10-23, 02:24:05,VALID,1009.95,VALID,0,INVALID,115.149,VALID,0,VALID,22.7978,VALID,35,VALID,0,
2014-10-23, 02:25:05,VALID,1009.95,VALID,0,INVALID,115.126,VALID,0,VALID,22.7978,VALID,35,VALID,0,
2014-10-23, 02:26:05,VALID,1009.97,VALID,0,INVALID,115.126,VALID,0,VALID,22.7978,VALID,35,VALID,0,
2014-10-23, 02:27:05,VALID,1009.95,VALID,0,INVALID,115.172,VALID,0,VALID,22.7978,VALID,35,VALID,0,
2014-10-23, 02:28:05,VALID,1009.97,VALID,0,INVALID,115.179,VALID,0,VALID,22.7783,VALID,35,VALID,0,
2014-10-23, 02:29:05,VALID,1009.97,VALID,0,INVALID,115.172,VALID,0,VALID,22.7783,VALID,35,VALID,0,
2014-10-23, 02:30:05,VALID,1009.99,VALID,0,INVALID,115.141,VALID,0,VALID,22.7588,VALID,35,VALID,0,
2014-10-23, 02:31:05,VALID,1009.99,VALID,0,INVALID,115.141,VALID,0,VALID,22.7783,VALID,35,VALID,0,
2014-10-23, 02:32:05,VALID,1010.01,VALID,0,INVALID,115.172,VALID,0,VALID,22.7783,VALID,35,VALID,0,
2014-10-23, 02:33:05,VALID,1009.99,VALID,0,INVALID,115.172,VALID,0,VALID,22.7588,VALID,35,VALID,0,
2014-10-23, 02:34:05,VALID,1009.99,VALID,0,INVALID,115.118,VALID,0,VALID,22.7783,VALID,35,VALID,0,
2014-10-23, 02:35:05,VALID,1009.97,VALID,0,INVALID,115.118,VALID,0,VALID,22.7588,VALID,35,VALID,0,
2014-10-23, 02:36:05,VALID,1009.95,VALID,0,INVALID,115.088,VALID,0,VALID,22.7783,VALID,35,VALID,0,
2014-10-23, 02:37:05,VALID,1009.94,VALID,0,INVALID,115.088,VALID,0,VALID,22.7783,VALID,35,VALID,0,
2014-10-23, 02:38:05,VALID,1009.94,VALID,0,INVALID,115.073,VALID,0,VALID,22.7978,VALID,35,VALID,0,
2014-10-23, 02:39:05,VALID,1009.97,VALID,0,INVALID,115.095,VALID,0,VALID,22.7783,VALID,35,VALID,0,
2014-10-23, 02:40:05,VALID,1009.97,VALID,0,INVALID,115.111,VALID,0,VALID,22.7783,VALID,35,VALID,0,
2014-10-23, 02:41:05,VALID,1009.97,VALID,0,INVALID,115.149,VALID,0,VALID,22.7588,VALID,35,VALID,0,
2014-10-23, 02:42:05,VALID,1009.99,VALID,0,INVALID,115.088,VALID,0,VALID,22.7588,VALID,35,VALID,0,
2014-10-23, 02:43:05,VALID,1009.98,VALID,0,INVALID,115.103,VALID,0,VALID,22.7766,VALID,35,VALID,0,
2014-10-23, 02:44:05,VALID,1009.99,VALID,0,INVALID,115.08,VALID,0,VALID,22.7783,VALID,35,VALID,0,
2014-10-23, 02:45:05,VALID,1009.97,VALID,0,INVALID,115.08,VALID,0,VALID,22.7783,VALID,35,VALID,0,
2014-10-23, 02:46:05,VALID,1009.97,VALID,0,INVALID,115.103,VALID,0,VALID,22.7588,VALID,35,VALID,0,
2014-10-23, 02:47:05,VALID,1010,VALID,0,INVALID,115.08,VALID,0,VALID,22.7783,VALID,35,VALID,0,
2014-10-23, 02:48:05,VALID,1010,VALID,0,INVALID,115.034,VALID,0,VALID,22.7766,VALID,35,VALID,0,
2014-10-23, 02:49:05,VALID,1010.02,VALID,0,INVALID,115.08,VALID,0,VALID,22.7783,VALID,35,VALID,0,
2014-10-23, 02:50:05,VALID,1010.04,VALID,0,INVALID,115.103,VALID,0,VALID,22.7783,VALID,35,VALID,0,
2014-10-23, 02:51:05,VALID,1010.01,VALID,0,INVALID,115.08,VALID,0,VALID,22.7783,VALID,35,VALID,0,
2014-10-23, 02:52:05,VALID,1010.04,VALID,0,INVALID,115.126,VALID,0,VALID,22.7783,VALID,35,VALID,0,
2014-10-23, 02:53:05,VALID,1010.01,VALID,0,INVALID,115.08,VALID,0,VALID,22.7978,VALID,35,VALID,0,
2014-10-23, 02:54:05,VALID,1009.99,VALID,0,INVALID,114.996,VALID,0,VALID,22.8173,VALID,35,VALID,0,
2014-10-23, 02:55:05,VALID,1009.98,VALID,0,INVALID,114.996,VALID,0,VALID,22.8368,VALID,35,VALID,0,
2014-10-23, 02:56:05,VALID,1010,VALID,0,INVALID,115.042,VALID,0.112112,VALID,22.8368,VALID,35,VALID,0,
2014-10-23, 02:57:05,VALID,1010,VALID,0,INVALID,115.065,VALID,0,VALID,22.8173,VALID,35,VALID,0,
2014-10-23, 02:58:05,VALID,1009.98,VALID,0,INVALID,115.05,VALID,0,VALID,22.7978,VALID,35,VALID,0,
2014-10-23, 02:59:05,VALID,1009.99,VALID,0,INVALID,115.027,VALID,0,VALID,22.8173,VALID,35,VALID,0,
2014-10-23, 03:00:05,VALID,1010,VALID,0,INVALID,115.05,VALID,0,VALID,22.8173,VALID,35,VALID,0,
2014-10-23, 03:01:05,VALID,1010.02,VALID,0,INVALID,115.134,VALID,0,VALID,22.7978,VALID,35,VALID,0,
2014-10-23, 03:02:05,VALID,1010.02,VALID,0,INVALID,115.126,VALID,0,VALID,22.7995,VALID,35,VALID,0,
2014-10-23, 03:03:05,VALID,1010.01,VALID,0,INVALID,115.118,VALID,0,VALID,22.7783,VALID,35,VALID,0,
2014-10-23, 03:04:05,VALID,1010.01,VALID,0,INVALID,115.111,VALID,0,VALID,22.7783,VALID,35,VALID,0,
2014-10-23, 03:05:05,VALID,1010.05,VALID,0,INVALID,115.134,VALID,0,VALID,22.7783,VALID,35,VALID,0,
2014-10-23, 03:06:05,VALID,1010.03,VALID,0,INVALID,115.164,VALID,0,VALID,22.7588,VALID,35,VALID,0,
2014-10-23, 03:07:05,VALID,1010.05,VALID,0,INVALID,115.164,VALID,0,VALID,22.7394,VALID,35,VALID,0,
2014-10-23, 03:08:05,VALID,1010.05,VALID,0,INVALID,115.157,VALID,0,VALID,22.7394,VALID,35,VALID,0,
2014-10-23, 03:09:05,VALID,1010.03,VALID,0,INVALID,115.118,VALID,0,VALID,22.7783,VALID,35,VALID,0,
2014-10-23, 03:10:05,VALID,1010.08,VALID,0,INVALID,115.08,VALID,0,VALID,22.7394,VALID,35,VALID,0,
2014-10-23, 03:11:05,VALID,1010.06,VALID,0,INVALID,115.126,VALID,0,VALID,22.7394,VALID,35,VALID,0,
2014-10-23, 03:12:05,VALID,1010.08,VALID,0,INVALID,115.134,VALID,0,VALID,22.7394,VALID,35,VALID,0,
2014-10-23, 03:13:05,VALID,1010.07,VALID,0,INVALID,115.073,VALID,0,VALID,22.7394,VALID,35,VALID,0,
2014-10-23, 03:14:05,VALID,1010.09,VALID,0,INVALID,115.073,VALID,0,VALID,22.7588,VALID,35,VALID,0,
2014-10-23, 03:15:05,VALID,1010.09,VALID,0,INVALID,115.073,VALID,0,VALID,22.7394,VALID,35,VALID,0,
2014-10-23, 03:16:05,VALID,1010.09,VALID,0,INVALID,115.103,VALID,0,VALID,22.7394,VALID,35,VALID,0,
2014-10-23, 03:17:05,VALID,1010.09,VALID,0,INVALID,115.027,VALID,0,VALID,22.7588,VALID,35,VALID,0,
2014-10-23, 03:18:05,VALID,1010.08,VALID,0,INVALID,115.012,VALID,0,VALID,22.7588,VALID,35,VALID,0,
2014-10-23, 03:19:05,VALID,1010.09,VALID,0,INVALID,115.027,VALID,0,VALID,22.7588,VALID,35,VALID,0,
2014-10-23, 03:20:05,VALID,1010.12,VALID,0,INVALID,115.027,VALID,0,VALID,22.7588,VALID,35,VALID,0,
2014-10-23, 03:21:05,VALID,1010.1,VALID,0,INVALID,115.027,VALID,0,VALID,22.7394,VALID,35,VALID,0,
2014-10-23, 03:22:05,VALID,1010.09,VALID,0,INVALID,114.973,VALID,0,VALID,22.7783,VALID,35,VALID,0,
2014-10-23, 03:23:05,VALID,1010.08,VALID,0,INVALID,114.912,VALID,0,VALID,22.7783,VALID,35,VALID,0,
2014-10-23, 03:24:05,VALID,1010.11,VALID,0,INVALID,115.027,VALID,0,VALID,22.7978,VALID,35,VALID,0,
2014-10-23, 03:25:05,VALID,1010.1,VALID,0,INVALID,115.034,VALID,0,VALID,22.7783,VALID,35,VALID,0,
2014-10-23, 03:26:05,VALID,1010.07,VALID,0,INVALID,115.004,VALID,0,VALID,22.7783,VALID,35,VALID,0,
2014-10-23, 03:27:05,VALID,1010.07,VALID,0,INVALID,115.012,VALID,0,VALID,22.7588,VALID,35,VALID,0,
2014-10-23, 03:28:05,VALID,1010.03,VALID,0,INVALID,114.981,VALID,0,VALID,22.7588,VALID,35,VALID,0,
2014-10-23, 03:29:05,VALID,1010,VALID,0,INVALID,114.966,VALID,0,VALID,22.7978,VALID,35,VALID,0,
2014-10-23, 03:30:05,VALID,1009.99,VALID,0,INVALID,114.935,VALID,0,VALID,22.7978,VALID,35,VALID,0,
2014-10-23, 03:31:05,VALID,1009.99,VALID,0,INVALID,114.943,VALID,0,VALID,22.8173,VALID,35,VALID,0,
2014-10-23, 03:32:05,VALID,1009.99,VALID,0,INVALID,114.951,VALID,0,VALID,22.8368,VALID,35,VALID,0,
2014-10-23, 03:33:05,VALID,1010,VALID,0,INVALID,114.867,VALID,0,VALID,22.8562,VALID,35,VALID,0,
2014-10-23, 03:34:05,VALID,1010.01,VALID,0,INVALID,114.844,VALID,0,VALID,22.8757,VALID,35,VALID,0,
2014-10-23, 03:35:05,VALID,1009.99,VALID,0,INVALID,114.867,VALID,0,VALID,22.8562,VALID,35,VALID,0,
2014-10-23, 03:36:05,VALID,1010,VALID,0,INVALID,114.943,VALID,0,VALID,22.8562,VALID,35,VALID,0,
2014-10-23, 03:37:05,VALID,1010.02,VALID,0,INVALID,114.958,VALID,0,VALID,22.8562,VALID,35,VALID,0,
2014-10-23, 03:38:05,VALID,1009.99,VALID,0,INVALID,114.996,VALID,0,VALID,22.8368,VALID,35,VALID,0,
2014-10-23, 03:39:05,VALID,1010.02,VALID,0,INVALID,114.996,VALID,0,VALID,22.8368,VALID,35,VALID,0,
2014-10-23, 03:40:05,VALID,1010.04,VALID,0,INVALID,114.996,VALID,0,VALID,22.8368,VALID,35,VALID,0,
2014-10-23, 03:41:05,VALID,1010.02,VALID,0,INVALID,114.958,VALID,0,VALID,22.8368,VALID,35,VALID,0,
2014-10-23, 03:42:05,VALID,1010.05,VALID,0,INVALID,114.935,VALID,0,VALID,22.8368,VALID,35,VALID,0,
2014-10-23, 03:43:05,VALID,1010.03,VALID,0,INVALID,114.92,VALID,0,VALID,22.8562,VALID,35,VALID,0,
2014-10-23, 03:44:05,VALID,1010.04,VALID,0,INVALID,114.935,VALID,0,VALID,22.8562,VALID,35,VALID,0,
2014-10-23, 03:45:05,VALID,1010.05,VALID,0,INVALID,114.958,VALID,0,VALID,22.8562,VALID,35,VALID,0,
2014-10-23, 03:46:04,VALID,1010.04,VALID,0,INVALID,114.912,VALID,0,VALID,22.8757,VALID,35,VALID,0,
2014-10-23, 03:47:04,VALID,1010.04,VALID,0,INVALID,114.89,VALID,0,VALID,22.8757,VALID,35,VALID,0,
2014-10-23, 03:48:04,VALID,1010.04,VALID,0,INVALID,114.935,VALID,0,VALID,22.8757,VALID,35,VALID,0,
2014-10-23, 03:49:04,VALID,1010,VALID,0,INVALID,114.951,VALID,0,VALID,22.8562,VALID,35,VALID,0,
2014-10-23, 03:50:04,VALID,1009.98,VALID,0,INVALID,114.966,VALID,0,VALID,22.8368,VALID,35,VALID,0,
2014-10-23, 03:51:04,VALID,1009.97,VALID,0,INVALID,114.973,VALID,0,VALID,22.835,VALID,35,VALID,0,
2014-10-23, 03:52:04,VALID,1009.99,VALID,0,INVALID,114.958,VALID,0,VALID,22.8368,VALID,35,VALID,0,
2014-10-23, 03:53:04,VALID,1009.98,VALID,0,INVALID,114.92,VALID,0,VALID,22.8368,VALID,35,VALID,0,
2014-10-23, 03:54:04,VALID,1009.96,VALID,0,INVALID,114.912,VALID,0,VALID,22.8155,VALID,35,VALID,0,